Regional Weather Roundup
Issued by NWS Austin/San Antonio, TX

Home | Current Version | Previous Version | Text Only | Print | Product List | Glossary On
Versions: 1 2 3 4 5 6 7 8 9 10 11 12 13 14 15 16 17 18 19 20 21 22 23 24 25 26 27 28 29 30 31 32 33 34 35 36 37 38 39 40 41 42 43 44 45 46 47 48 49 50
834
ASUS44 KEWX 281811
RWREWX
SOUTH TEXAS REGIONAL WEATHER ROUNDUP
NATIONAL WEATHER SERVICE AUSTIN/SAN ANTONIO TX
100 PM CDT WED JUN 28 2017

NOTE: "FAIR" INDICATED FEW OR NO CLOUDS BELOW 12,000 FEET WITH NO
SIGNIFICANT WEATHER AND/OR OBSTRUCTIONS TO VISIBILITY.

* - THESE STATIONS ARE NOT NWS OR FAA STATIONS...AND ARE NOT SUBJECT
    TO NWS AND FAA QUALITY CONTROL.

TXZ171-172-183>190-281900-
TEXAS HILL COUNTRY AND EDWARDS PLATEAU

CITY           SKY/WX    TMP DP  RH WIND       PRES   REMARKS
JUNCTION       SUNNY     86  66  51 SE10      29.95F
6HR MIN TEMP:  69; 6HR MAX TEMP:  86;

*LLANO         MOSUNNY   82  70  65 SE5       29.99F
BURNET         PTSUNNY   83  67  58 SE7       29.98F
6HR MIN TEMP:  71; 6HR MAX TEMP:  84;

*HORSESHOE BAY PTSUNNY   86  68  55 MISG      29.96S
6HR MIN TEMP:  69; 6HR MAX TEMP:  86;

*KERRVILLE     PTSUNNY   82  70  66 SE6       29.98R
6HR MIN TEMP:  69; 6HR MAX TEMP:  84;

*FREDERICKSBRG CLOUDY    81  65  59 SE5       29.98S
6HR MIN TEMP:  69; 6HR MAX TEMP:  81;

*ROCKSPRINGS   SUNNY     82  70  65 S10       30.01S
*BOERNE STAGE  CLOUDY    81  68  65 SE5       29.97S
*CASTROVILLE   PTSUNNY   87  66  49 E9        29.94F
HONDO          CLOUDY    86  69  56 E9        29.94S HX  90
6HR MIN TEMP:  70; 6HR MAX TEMP:  86;

*UVALDE        PTSUNNY   84  69  60 CALM      29.94S
6HR MIN TEMP:  69; 6HR MAX TEMP:  84;

DEL RIO        MOSUNNY   85  68  56 SE13      29.91F
6HR MIN TEMP:  70; 6HR MAX TEMP:  85;

LAUGHLIN AFB   MOSUNNY   86  68  55 S12       29.92S
6HR MIN TEMP:  70; 6HR MAX TEMP:  86;

CARRIZO SPRGS  PTSUNNY   86  68  54 SE3       29.91F
*EAGLE PASS    PTCLDY    88  68  51 VRB6G14   29.92F HX  91
$$

TXZ173-191>194-202-209-217>225-228-281900-
CENTRAL AND SOUTH CENTRAL TEXAS

CITY           SKY/WX    TMP DP  RH WIND       PRES   REMARKS
GEORGETOWN     PTSUNNY   84  68  58 E6        29.94S
AUSTIN/BERGSTM MOSUNNY   88  70  55 E10       29.92F HX  93
6HR MIN TEMP:  73; 6HR MAX TEMP:  88;

AUSTIN/MABRY   PTSUNNY   87  69  54 VRB5      29.94F HX  91
6HR MIN TEMP:  74; 6HR MAX TEMP:  87;

*AUSTIN/EXEC     N/A     84  70  61 E7        29.94F
*LAGO VISTA    CLOUDY    85  69  60 CALM      29.97S
6HR MIN TEMP:  72; 6HR MAX TEMP:  85;

SAN MARCOS     PTSUNNY   86  72  62 E8        29.94F HX  92
NEW BRAUNFELS  PTSUNNY   87  70  56 VRB3      29.91F HX  92
6HR MIN TEMP:  72; 6HR MAX TEMP:  87;

RANDOLPH AFB   PTSUNNY   87  72  60 E5        29.93S HX  94
6HR MIN TEMP:  72; 6HR MAX TEMP:  87;

PT SAN ANTONIO PTSUNNY   84  71  64 CALM      29.92S
6HR MIN TEMP:  72; 6HR MAX TEMP:  84;

SAN ANTONIO    PTSUNNY   84  69  60 VRB6      29.94S
6HR MIN TEMP:  72; 6HR MAX TEMP:  85;

STINSON FIELD  PTSUNNY   89  70  53 N6        29.91S HX  94
6HR MIN TEMP:  76; 6HR MAX TEMP:  89;

*LA GRANGE     CLOUDY    86  74  66 E7        29.90F HX  93
6HR MIN TEMP:  73; 6HR MAX TEMP:  87;

*GIDDINGS      PTSUNNY   86  69  56 E7        29.93F
6HR MIN TEMP:  69; 6HR MAX TEMP:  87;

*GONZALES      CLOUDY    87  73  63 NE8       29.91S HX  94
6HR MIN TEMP:  73; 6HR MAX TEMP:  88;

$$

TXZ163>164-176>182-195>201-210>213-226-227-235-281900-
SOUTHEAST TEXAS

CITY           SKY/WX    TMP DP  RH WIND       PRES   REMARKS
COLLEGE STN    PTSUNNY   84  73  69 E9G17     29.93S HX  90
6HR MIN TEMP:  69; 6HR MAX TEMP:  83;

*BRYAN         PTSUNNY   84  71  65 E10       29.95S
6HR MIN TEMP:  69; 6HR MAX TEMP:  84;

*CALDWELL      NOT AVBL
*CROCKETT      MOSUNNY   86  72  62 SE10      29.98S HX  92
*BRENHAM       PTSUNNY   87  73  63 SE13      29.92F HX  95
6HR MIN TEMP:  73; 6HR MAX TEMP:  87;

HUNTSVILLE     MOSUNNY   88  70  55 E6        29.95S HX  93
6HR MIN TEMP:  73; 6HR MAX TEMP:  88;

CONROE         MOSUNNY   85  72  65 SE10      29.93F HX  91
6HR MIN TEMP:  72; 6HR MAX TEMP:  86;

HOUSTON BUSH   MOSUNNY   85  71  63 E14       29.92F HX  90
6HR MIN TEMP:  75; 6HR MAX TEMP:  88;

HOUSTON HOBBY  MOSUNNY   87  73  62 E10G20    29.90F HX  94
6HR MIN TEMP:  77; 6HR MAX TEMP:  88; 6HR PCP:  0.01;

*HOUSTON SW AP PTSUNNY   86  74  67 E12       29.91F HX  94
6HR MIN TEMP:  73; 6HR MAX TEMP:  87;

PEARLAND       MOSUNNY   88  74  63 E13       29.92F HX  96
6HR MIN TEMP:  76; 6HR MAX TEMP:  88; 6HR PCP: TRACE;

HOUSTON HOOKS  MOSUNNY   88  72  58 E13G20    29.92F HX  94
6HR MIN TEMP:  74; 6HR MAX TEMP:  88; 6HR PCP:  0.01;

ELLINGTON FLD  PTSUNNY   88  75  66 E12       29.92F HX  97
SUGAR LAND     PTSUNNY   88  73  61 E14G21    29.90F HX  95
6HR MIN TEMP:  76; 6HR MAX TEMP:  88; 6HR PCP: TRACE;

*HOUSTON EXEC  SUNNY     86  73  66 E14G20    29.92F HX  93
*CLEVELAND MUN PTSUNNY   84  73  69 E5        29.95S
6HR MIN TEMP:  71; 6HR MAX TEMP:  86;

*WHARTON       MOSUNNY   88  72  58 NE10G16   29.90S HX  94
6HR MIN TEMP:  72; 6HR MAX TEMP:  88;

*COLUMBUS      PTSUNNY   85  73  65 E8        29.91F HX  92
6HR MIN TEMP:  72; 6HR MAX TEMP:  86;

*EAGLE LAKE    CLOUDY    85  77  77 E12       29.91S HX  94
6HR MIN TEMP:  73; 6HR MAX TEMP:  87;

$$

TXZ214>216-236>238-281900-
THE UPPER TEXAS COAST

CITY           SKY/WX    TMP DP  RH WIND       PRES   REMARKS
*ORANGE        PTSUNNY   80  76  85 E8G17     29.97S FOG
6HR MIN TEMP:  73; 6HR MAX TEMP:  83; 6HR PCP:  0.07;

PORT ARTHUR    LGT RAIN N/A N/A N/A MISG      29.93F
GALVESTON      CLOUDY    80  78  94 E14       29.92S
6HR MIN TEMP:  77; 6HR MAX TEMP:  83; 6HR PCP:  0.24;

ANGLETON       CLOUDY    85  75  72 E12       29.89F HX  93
6HR MIN TEMP:  77; 6HR MAX TEMP:  86; 6HR PCP: TRACE;

*BAY CITY      RAIN      78  75  90 E5        29.89S
PALACIOS       LGT RAIN  82  75  79 E14       29.87F
6HR MIN TEMP:  71; 6HR MAX TEMP:  85; 6HR PCP:  0.01;

$$

TXZ229>234-239>247-281900-
TEXAS COASTAL BEND AND RIO GRANDE PLAINS

CITY           SKY/WX    TMP DP  RH WIND       PRES   REMARKS
VICTORIA       PTSUNNY   87  74  64 NE7       29.89S HX  95
6HR MIN TEMP:  74; 6HR MAX TEMP:  88;

*BEEVILLE      MOSUNNY   89  73  58 NE3       29.89F HX  97
ROCKPORT       SUNNY     87  75  67 E9        29.87F HX  96
6HR MIN TEMP:  76; 6HR MAX TEMP:  88;

*PORT ARANSAS  CLOUDY    83  74  73 E8        29.88S
6HR MIN TEMP:  78; 6HR MAX TEMP:  85; 6HR PCP:  0.03;

*PORT LAVACA   PTSUNNY   84  78  83 CALM      29.88F HX  95
*INGLESIDE     MOSUNNY   87  76  69 MISG      29.87F HX  98
CORPUS CHRISTI MOSUNNY   93  74  53 VRB7      29.87F HX 103
6HR MIN TEMP:  78; 6HR MAX TEMP:  94;

CORPUS NAS     PTSUNNY   90  76  63 NE8       29.87F HX 101
6HR MIN TEMP:  80; 6HR MAX TEMP:  90; 6HR PCP:  0.02;

*ROBSTOWN      MOSUNNY   89  74  61 N5        29.88S HX  97
6HR MIN TEMP:  75; 6HR MAX TEMP:  89;

ALICE          MOSUNNY   90  68  48 N9        29.87F HX  94
6HR MIN TEMP:  74; 6HR MAX TEMP:  92;

KINGSVILLE NAS PTSUNNY   89  75  63 NE8       29.87F HX  99
6HR MIN TEMP:  74; 6HR MAX TEMP:  89;

COTULLA        PTSUNNY   84  69  60 CALM      29.91F
6HR MIN TEMP:  71; 6HR MAX TEMP:  86;

*FAITH RANCH   PTSUNNY   86  68  54 VRB7      29.92F
LAREDO         MOSUNNY   89  71  55 VRB5      29.91F HX  95
6HR MIN TEMP:  72; 6HR MAX TEMP:  89;

$$

TXZ248>255-281900-
DEEP SOUTH TEXAS

CITY           SKY/WX    TMP DP  RH WIND       PRES   REMARKS
BROWNSVILLE    MOSUNNY   88  78  72 SE15      29.86F HX 101
6HR MIN TEMP:  77; 6HR MAX TEMP:  89; 6HR PCP:  0.01;

PORT ISABEL    PTSUNNY   83  77  82 E13       29.87S HX  92
6HR MIN TEMP:  76; 6HR MAX TEMP:  90;

*SOUTH PADRE   NOT AVBL
HARLINGEN      MOSUNNY   91  76  61 MISG      29.85F HX 103
6HR MIN TEMP:  74; 6HR MAX TEMP:  91;

*HEBBRONVILLE  MOSUNNY   83  70  63 E7        29.91F
6HR MIN T



USA.gov is the U.S. government's official web portal to all federal, state and local government web resources and services.